| time (UTC) | temp F | wind direction | speed knots | gust knots | rain 1hr in | rain 24hr in | rain mn in | humidity % | barometer mb |
| 20260503020411 | 57 | 168 | 2.6 | 4.3 | 0.00 | 0.00 | 0.00 | 47 | |
| 20260503015731 | 57 | 104 | 2.6 | 7.0 | 0.00 | 0.00 | 0.00 | 47 | |
| 20260503015052 | 57 | 141 | 3.5 | 8.7 | 0.00 | 0.00 | 0.00 | 47 | |
| 20260503013732 | 59 | 161 | 1.7 | 4.3 | 0.00 | 0.00 | 0.00 | 47 | |
| 20260503012411 | 58 | 53 | 2.6 | 7.0 | 0.00 | 0.00 | 0.00 | 43 | |
| 20260503011731 | 58 | 70 | 2.6 | 7.0 | 0.00 | 0.00 | 0.00 | 44 | |
| 20260503011051 | 59 | 75 | 2.6 | 5.2 | 0.00 | 0.00 | 0.00 | 42 | |
| 20260503010411 | 59 | 347 | 2.6 | 9.6 | 0.00 | 0.00 | 0.00 | 36 | |
| 20260503005731 | 59 | 325 | 7.0 | 13.0 | 0.00 | 0.00 | 0.00 | 37 | |
| 20260503005052 | 58 | 9 | 7.0 | 12.2 | 0.00 | 0.00 | 0.00 | 41 | |
| 20260503004411 | 58 | 359 | 6.1 | 19.1 | 0.00 | 0.00 | 0.00 | 45 | |
| 20260503003731 | 59 | 354 | 10.4 | 25.2 | 0.00 | 0.00 | 0.00 | 43 | |
| 20260503003051 | 61 | 324 | 13.9 | 20.9 | 0.00 | 0.00 | 0.00 | 36 | |
| 20260503002411 | 64 | 339 | 11.3 | 17.4 | 0.00 | 0.00 | 0.00 | 26 | |
| 20260503001731 | 65 | 341 | 2.6 | 3.5 | 0.00 | 0.00 | 0.00 | 24 | |
| 20260503001051 | 65 | 100 | 0.9 | 3.5 | 0.00 | 0.00 | 0.00 | 23 | |
| 20260502235731 | 66 | 88 | 1.7 | 4.3 | 0.00 | 0.00 | 0.00 | 23 | |
| 20260502234411 | 66 | 146 | 3.5 | 5.2 | 0.00 | 0.00 | 0.00 | 23 | |
| 20260502233731 | 66 | 140 | 3.5 | 4.3 | 0.00 | 0.00 | 0.00 | 23 | |
| 20260502233051 | 66 | 162 | 3.5 | 6.1 | 0.00 | 0.00 | 0.00 | 24 | |
| 20260502232411 | 66 | 227 | 2.6 | 7.0 | 0.00 | 0.00 | 0.00 | 25 | |
| 20260502231731 | 67 | 209 | 3.5 | 8.7 | 0.00 | 0.00 | 0.00 | 22 | |
| 20260502230411 | 68 | 246 | 4.3 | 7.8 | 0.00 | 0.00 | 0.00 | 21 | |
| 20260502225731 | 69 | 145 | 2.6 | 6.1 | 0.00 | 0.00 | 0.00 | 20 | |
| 20260502225051 | 70 | 226 | 3.5 | 7.0 | 0.00 | 0.00 | 0.00 | 21 | |
| 20260502224411 | 70 | 339 | 2.6 | 6.1 | 0.00 | 0.00 | 0.00 | 20 | |
| 20260502223731 | 69 | 179 | 2.6 | 6.1 | 0.00 | 0.00 | 0.00 | 21 | |
| 20260502223051 | 69 | 214 | 1.7 | 7.8 | 0.00 | 0.00 | 0.00 | 21 | |
| 20260502220411 | 68 | 235 | 3.5 | 7.0 | 0.00 | 0.00 | 0.00 | 22 | |
| 20260502215731 | 67 | 217 | 2.6 | 7.0 | 0.00 | 0.00 | 0.00 | 22 | |
| 20260502214411 | 67 | 180 | 1.7 | 6.1 | 0.00 | 0.00 | 0.00 | 23 | |
| 20260502213052 | 67 | 185 | 4.3 | 9.6 | 0.00 | 0.00 | 0.00 | 24 | |
| 20260502212411 | 67 | 226 | 2.6 | 7.8 | 0.00 | 0.00 | 0.00 | 25 | |
| 20260502211731 | 67 | 205 | 2.6 | 7.8 | 0.00 | 0.00 | 0.00 | 24 | |
| 20260502211051 | 67 | 217 | 0.9 | 6.1 | 0.00 | 0.00 | 0.00 | 24 | |
| 20260502205731 | 66 | 124 | 3.5 | 7.0 | 0.00 | 0.00 | 0.00 | 26 | |
| 20260502205051 | 66 | 136 | 2.6 | 6.1 | 0.00 | 0.00 | 0.00 | 26 | |
| 20260502204411 | 66 | 143 | 3.5 | 6.1 | 0.00 | 0.00 | 0.00 | 26 | |
| 20260502203731 | 66 | 212 | 3.5 | 7.0 | 0.00 | 0.00 | 0.00 | 25 | |
| 20260502203051 | 65 | 235 | 3.5 | 9.6 | 0.00 | 0.00 | 0.00 | 28 | |
| 20260502202411 | 66 | 227 | 4.3 | 6.1 | 0.00 | 0.00 | 0.00 | 26 | |
| 20260502201731 | 65 | 262 | 2.6 | 6.1 | 0.00 | 0.00 | 0.00 | 26 | |
| 20260502201051 | 65 | 123 | 2.6 | 7.0 | 0.00 | 0.00 | 0.00 | 26 | |
| 20260502195731 | 65 | 222 | 1.7 | 7.0 | 0.00 | 0.00 | 0.00 | 26 | |
| 20260502195051 | 65 | 190 | 3.5 | 9.6 | 0.00 | 0.00 | 0.00 | 28 | |
| 20260502194411 | 64 | 194 | 6.1 | 9.6 | 0.00 | 0.00 | 0.00 | 27 | |
| 20260502193731 | 66 | 184 | 3.5 | 8.7 | 0.00 | 0.00 | 0.00 | 27 | |
| 20260502192411 | 65 | 202 | 4.3 | 7.0 | 0.00 | 0.00 | 0.00 | 27 | |
| 20260502191733 | 65 | 232 | 2.6 | 7.8 | 0.00 | 0.00 | 0.00 | 28 | |
| 20260502191051 | 64 | 147 | 3.5 | 8.7 | 0.00 | 0.00 | 0.00 | 29 | |
| 20260502190411 | 64 | 215 | 4.3 | 8.7 | 0.00 | 0.00 | 0.00 | 29 | |
| 20260502185731 | 64 | 203 | 4.3 | 7.0 | 0.00 | 0.00 | 0.00 | 30 | |
| 20260502185052 | 64 | 262 | 3.5 | 7.0 | 0.00 | 0.00 | 0.00 | 29 | |
| 20260502184411 | 64 | 182 | 3.5 | 7.8 | 0.00 | 0.00 | 0.00 | 29 | |
| 20260502183731 | 63 | 227 | 4.3 | 8.7 | 0.00 | 0.00 | 0.00 | 30 | |
| 20260502183052 | 64 | 210 | 3.5 | 7.8 | 0.00 | 0.00 | 0.00 | 30 | |
| 20260502182411 | 63 | 235 | 5.2 | 7.8 | 0.00 | 0.00 | 0.00 | 30 | |
| 20260502181731 | 63 | 216 | 4.3 | 7.8 | 0.00 | 0.00 | 0.00 | 31 | |
| 20260502181051 | 64 | 151 | 3.5 | 7.0 | 0.00 | 0.00 | 0.00 | 29 | |
| 20260502180411 | 64 | 191 | 4.3 | 7.0 | 0.00 | 0.00 | 0.00 | 29 | |
| 20260502163731 | 60 | 351 | 3.5 | 6.1 | 0.00 | 0.00 | 0.00 | 33 | |
| 20260502163051 | 59 | 187 | 1.7 | 3.5 | 0.00 | 0.00 | 0.00 | 34 | |
| 20260502161731 | 58 | 328 | 1.7 | 5.2 | 0.00 | 0.00 | 0.00 | 36 | |
| 20260502161052 | 58 | 20 | 3.5 | 5.2 | 0.00 | 0.00 | 0.00 | 36 | |
| 20260502160411 | 57 | 325 | 1.7 | 4.3 | 0.00 | 0.00 | 0.00 | 37 | |
| 20260502151732 | 54 | 311 | 4.3 | 8.7 | 0.00 | 0.00 | 0.00 | 43 | |
| 20260502151051 | 54 | 319 | 5.2 | 8.7 | 0.00 | 0.00 | 0.00 | 44 | |
| 20260502150411 | 53 | 322 | 5.2 | 8.7 | 0.00 | 0.00 | 0.00 | 45 | |
| 20260502130411 | 44 | 293 | 2.6 | 4.3 | 0.00 | 0.00 | 0.00 | 64 | |
| 20260502123731 | 44 | 240 | 3.5 | 5.2 | 0.00 | 0.00 | 0.00 | 63 | |
| 20260502123051 | 45 | 265 | 1.7 | 6.1 | 0.00 | 0.00 | 0.00 | 60 | |
| 20260502121051 | 45 | 308 | 4.3 | 7.8 | 0.00 | 0.00 | 0.00 | 59 | |
| 20260502120411 | 45 | 283 | 2.6 | 7.8 | 0.00 | 0.00 | 0.00 | 60 | |
| 20260502115731 | 45 | 292 | 4.3 | 9.6 | 0.00 | 0.00 | 0.00 | 60 | |
| 20260502115051 | 44 | 278 | 3.5 | 7.0 | 0.00 | 0.00 | 0.00 | 62 | |
| 20260502114411 | 45 | 259 | 3.5 | 6.1 | 0.00 | 0.00 | 0.00 | 62 | |
| 20260502113731 | 45 | 261 | 3.5 | 7.8 | 0.00 | 0.00 | 0.00 | 61 | |
| 20260502113051 | 45 | 266 | 3.5 | 9.6 | 0.00 | 0.00 | 0.00 | 60 | |
| 20260502112411 | 45 | 278 | 3.5 | 9.6 | 0.00 | 0.00 | 0.00 | 60 | |
| 20260502111731 | 46 | 294 | 4.3 | 13.0 | 0.00 | 0.00 | 0.00 | 59 | |
| 20260502111051 | 47 | 304 | 6.1 | 13.0 | 0.00 | 0.00 | 0.00 | 57 | |
| 20260502110411 | 47 | 297 | 6.1 | 10.4 | 0.00 | 0.00 | 0.00 | 56 | |
| 20260502105731 | 47 | 297 | 5.2 | 7.8 | 0.00 | 0.00 | 0.00 | 55 | |
| 20260502104411 | 47 | 317 | 5.2 | 8.7 | 0.00 | 0.00 | 0.00 | 54 | |
| 20260502103731 | 46 | 313 | 5.2 | 8.7 | 0.00 | 0.00 | 0.00 | 53 | |
| 20260502103050 | 47 | 266 | 2.6 | 7.0 | 0.00 | 0.00 | 0.00 | 54 | |
| 20260502102410 | 46 | 280 | 3.5 | 7.8 | 0.00 | 0.00 | 0.00 | 54 | |
| 20260502101050 | 47 | 279 | 4.3 | 9.6 | 0.00 | 0.00 | 0.00 | 54 | |
| 20260502100410 | 47 | 267 | 5.2 | 9.6 | 0.00 | 0.00 | 0.00 | 54 | |
| 20260502091050 | 48 | 299 | 4.3 | 9.6 | 0.00 | 0.00 | 0.00 | 47 | |
| 20260502090412 | 48 | 282 | 3.5 | 7.0 | 0.00 | 0.00 | 0.00 | 46 | |
| 20260502071050 | 49 | 223 | 2.6 | 3.5 | 0.00 | 0.00 | 0.00 | 48 | |
| 20260502070410 | 49 | 217 | 1.7 | 1.7 | 0.00 | 0.00 | 0.00 | 46 | |
| 20260502065731 | 49 | 270 | 0.9 | 2.6 | 0.00 | 0.00 | 0.00 | 44 | |
| 20260502065050 | 49 | 253 | 1.7 | 4.3 | 0.00 | 0.00 | 0.00 | 44 | |
| 20260502064410 | 48 | 255 | 2.6 | 4.3 | 0.00 | 0.00 | 0.00 | 45 | |
| 20260502063730 | 48 | 270 | 0.9 | 3.5 | 0.00 | 0.00 | 0.00 | 44 | |
| 20260502063051 | 48 | 224 | 1.7 | 2.6 | 0.00 | 0.00 | 0.00 | 45 | |
| 20260502062410 | 48 | 308 | 0.9 | 7.0 | 0.00 | 0.00 | 0.00 | 44 | |
| 20260502061050 | 50 | 310 | 2.6 | 6.1 | 0.00 | 0.00 | 0.00 | 44 | |
| 20260502060410 | 51 | 230 | 5.2 | 7.8 | 0.00 | 0.00 | 0.00 | 43 | |
| 20260502055730 | 51 | 234 | 5.2 | 7.8 | 0.00 | 0.00 | 0.00 | 43 | |
| 20260502055051 | 51 | 232 | 5.2 | 7.8 | 0.00 | 0.00 | 0.00 | 42 | |
| 20260502054410 | 51 | 230 | 5.2 | 7.8 | 0.00 | 0.00 | 0.00 | 42 | |
| 20260502053730 | 51 | 234 | 6.1 | 7.8 | 0.00 | 0.00 | 0.00 | 41 | |
| 20260502053050 | 51 | 233 | 4.3 | 7.0 | 0.00 | 0.00 | 0.00 | 41 | |
| 20260502052410 | 51 | 235 | 4.3 | 6.1 | 0.00 | 0.00 | 0.00 | 40 | |
| 20260502051050 | 51 | 233 | 3.5 | 7.8 | 0.00 | 0.00 | 0.00 | 39 | |
| 20260502050410 | 51 | 240 | 4.3 | 7.8 | 0.00 | 0.00 | 0.00 | 38 | |
| 20260502045731 | 51 | 234 | 4.3 | 7.8 | 0.00 | 0.00 | 0.00 | 41 | |
| 20260502045050 | 51 | 253 | 3.5 | 5.2 | 0.00 | 0.00 | 0.00 | 43 | |
| 20260502044410 | 51 | 234 | 3.5 | 6.1 | 0.00 | 0.00 | 0.00 | 40 | |
| 20260502043729 | 52 | 233 | 4.3 | 6.1 | 0.00 | 0.00 | 0.00 | 38 | |
| 20260502043050 | 51 | 231 | 4.3 | 6.1 | 0.00 | 0.00 | 0.00 | 42 | |
| 20260502042409 | 52 | 243 | 2.6 | 7.0 | 0.00 | 0.00 | 0.00 | 41 | |
| 20260502041730 | 52 | 241 | 3.5 | 6.1 | 0.00 | 0.00 | 0.00 | 42 | |
| 20260502041049 | 53 | 234 | 3.5 | 6.1 | 0.00 | 0.00 | 0.00 | 40 | |
| 20260502040409 | 53 | 237 | 4.3 | 7.0 | 0.00 | 0.00 | 0.00 | 38 | |
| 20260502035729 | 53 | 236 | 3.5 | 6.1 | 0.00 | 0.00 | 0.00 | 39 | |
| 20260502035049 | 53 | 232 | 3.5 | 7.0 | 0.00 | 0.00 | 0.00 | 38 | |
| 20260502034409 | 53 | 234 | 3.5 | 6.1 | 0.00 | 0.00 | 0.00 | 37 | |
| 20260502033729 | 53 | 230 | 4.3 | 6.1 | 0.00 | 0.00 | 0.00 | 37 | |
| 20260502032409 | 55 | 230 | 3.5 | 6.1 | 0.00 | 0.00 | 0.00 | 32 | |
| 20260502031729 | 55 | 231 | 3.5 | 6.1 | 0.00 | 0.00 | 0.00 | 31 | |
| 20260502031049 | 54 | 221 | 2.6 | 4.3 | 0.00 | 0.00 | 0.00 | 33 | |
| 20260502030409 | 55 | 231 | 3.5 | 5.2 | 0.00 | 0.00 | 0.00 | 35 | |
| 20260502025729 | 56 | 229 | 3.5 | 6.1 | 0.00 | 0.00 | 0.00 | 31 | |
| 20260502025050 | 57 | 229 | 4.3 | 6.1 | 0.00 | 0.00 | 0.00 | 29 | |
| 20260502024409 | 58 | 235 | 3.5 | 7.8 | 0.00 | 0.00 | 0.00 | 27 | |
| 20260502023050 | 59 | 257 | 3.5 | 7.0 | 0.00 | 0.00 | 0.00 | 25 |